Time,TemperatureF,DewpointF,PressureIn,WindDirection,WindDirectionDegrees,WindSpeedMPH,WindSpeedGustMPH,Humidity,HourlyPrecipIn,Conditions,Clouds,dailyrainin,SoftwareType,DateUTC
2013-03-14 00:02:00,37.0,-99.9,-100.00,North,-999,-999.0,-999.0,-999,0.00,,,0.22,,2013-03-14 06:02:00,
2013-03-14 00:13:00,37.0,-99.9,-100.00,North,-999,-999.0,-999.0,-999,0.00,,,0.22,,2013-03-14 06:13:00,
2013-03-14 00:22:00,37.0,-99.9,-100.00,North,-999,-999.0,-999.0,-999,0.00,,,0.22,,2013-03-14 06:22:00,
2013-03-14 00:30:00,39.0,-99.9,-100.00,North,-999,-999.0,-999.0,-999,0.00,,,0.21,,2013-03-14 06:30:00,
2013-03-14 00:52:00,39.0,-99.9,-100.00,North,-999,-999.0,-999.0,-999,0.00,,,0.21,,2013-03-14 06:52:00,
2013-03-14 01:02:00,39.0,-99.9,-100.00,North,-999,-999.0,-999.0,-999,0.00,,,0.21,,2013-03-14 07:02:00,
2013-03-14 01:12:00,39.0,-99.9,-100.00,North,-999,-999.0,-999.0,-999,0.00,,,0.21,,2013-03-14 07:12:00,
2013-03-14 01:22:00,39.0,-99.9,-100.00,North,-999,-999.0,-999.0,-999,0.00,,,0.21,,2013-03-14 07:22:00,
2013-03-14 01:30:00,39.0,-99.9,-100.00,North,-999,-999.0,-999.0,-999,0.00,,,0.21,,2013-03-14 07:30:00,
2013-03-14 01:52:00,39.0,-99.9,-100.00,North,-999,-999.0,-999.0,-999,0.00,,,0.21,,2013-03-14 07:52:00,
2013-03-14 02:02:00,39.0,-99.9,-100.00,North,-999,-999.0,-999.0,-999,0.00,,,0.21,,2013-03-14 08:02:00,
2013-03-14 02:12:00,39.0,-99.9,-100.00,North,-999,-999.0,-999.0,-999,0.00,,,0.21,,2013-03-14 08:12:00,
2013-03-14 02:22:00,39.0,-99.9,-100.00,North,-999,-999.0,-999.0,-999,0.00,,,0.21,,2013-03-14 08:22:00,
2013-03-14 03:30:00,37.0,-99.9,-100.00,North,-999,-999.0,-999.0,-999,-99.99,,,0.19,,2013-03-14 09:30:00,
2013-03-14 03:52:00,37.0,-99.9,-100.00,North,-999,-999.0,-999.0,-999,-99.99,,,0.19,,2013-03-14 09:52:00,
2013-03-14 04:02:00,37.0,-99.9,-100.00,North,-999,-999.0,-999.0,-999,-99.99,,,0.19,,2013-03-14 10:02:00,
2013-03-14 04:12:00,37.0,-99.9,-100.00,North,-999,-999.0,-999.0,-999,-99.99,,,0.19,,2013-03-14 10:12:00,
2013-03-14 04:22:00,37.0,-99.9,-100.00,North,-999,-999.0,-999.0,-999,-99.99,,,0.19,,2013-03-14 10:22:00,
2013-03-14 04:30:00,38.0,-99.9,-100.00,North,-999,-999.0,-999.0,-999,0.00,,,0.18,,2013-03-14 10:30:00,
2013-03-14 04:52:00,38.0,-99.9,-100.00,North,-999,-999.0,-999.0,-999,0.00,,,0.18,,2013-03-14 10:52:00,
2013-03-14 05:02:00,38.0,-99.9,-100.00,North,-999,-999.0,-999.0,-999,0.00,,,0.18,,2013-03-14 11:02:00,
2013-03-14 05:12:00,38.0,-99.9,-100.00,North,-999,-999.0,-999.0,-999,0.00,,,0.18,,2013-03-14 11:12:00,
2013-03-14 05:23:00,38.0,-99.9,-100.00,North,-999,-999.0,-999.0,-999,0.00,,,0.18,,2013-03-14 11:23:00,
2013-03-14 05:30:00,39.0,-99.9,-100.00,North,-999,-999.0,-999.0,-999,0.01,,,0.18,,2013-03-14 11:30:00,
2013-03-14 05:53:00,39.0,-99.9,-100.00,North,-999,-999.0,-999.0,-999,0.01,,,0.18,,2013-03-14 11:53:00,
2013-03-14 06:02:00,39.0,-99.9,-100.00,North,-999,-999.0,-999.0,-999,0.01,,,0.18,,2013-03-14 12:02:00,
2013-03-14 06:12:00,39.0,-99.9,-100.00,North,-999,-999.0,-999.0,-999,0.01,,,0.18,,2013-03-14 12:12:00,
2013-03-14 06:22:00,39.0,-99.9,-100.00,North,-999,-999.0,-999.0,-999,0.01,,,0.18,,2013-03-14 12:22:00,
2013-03-14 06:30:00,36.0,-99.9,-100.00,North,-999,-999.0,-999.0,-999,-99.99,,,0.07,,2013-03-14 12:30:00,
2013-03-14 06:52:00,36.0,-99.9,-100.00,North,-999,-999.0,-999.0,-999,-99.99,,,0.07,,2013-03-14 12:52:00,
2013-03-14 07:03:00,36.0,-99.9,-100.00,North,-999,-999.0,-999.0,-999,-99.99,,,0.07,,2013-03-14 13:03:00,
2013-03-14 07:13:00,36.0,-99.9,-100.00,North,-999,-999.0,-999.0,-999,-99.99,,,0.07,,2013-03-14 13:13:00,
2013-03-14 07:22:00,36.0,-99.9,-100.00,North,-999,-999.0,-999.0,-999,-99.99,,,0.07,,2013-03-14 13:22:00,
2013-03-14 07:30:00,35.0,-99.9,-100.00,North,-999,-999.0,-999.0,-999,0.00,,,0.07,,2013-03-14 13:30:00,
2013-03-14 08:03:00,35.0,-99.9,-100.00,North,-999,-999.0,-999.0,-999,0.00,,,0.07,,2013-03-14 14:03:00,
2013-03-14 08:12:00,35.0,-99.9,-100.00,North,-999,-999.0,-999.0,-999,0.00,,,0.07,,2013-03-14 14:12:00,
2013-03-14 08:22:00,35.0,-99.9,-100.00,North,-999,-999.0,-999.0,-999,0.00,,,0.07,,2013-03-14 14:22:00,
2013-03-14 08:30:00,37.0,-99.9,-100.00,North,-999,-999.0,-999.0,-999,0.00,,,0.04,,2013-03-14 14:30:00,
2013-03-14 08:53:00,37.0,-99.9,-100.00,North,-999,-999.0,-999.0,-999,0.00,,,0.04,,2013-03-14 14:53:00,
2013-03-14 09:03:00,37.0,-99.9,-100.00,North,-999,-999.0,-999.0,-999,0.00,,,0.04,,2013-03-14 15:03:00,
2013-03-14 09:12:00,37.0,-99.9,-100.00,North,-999,-999.0,-999.0,-999,0.00,,,0.04,,2013-03-14 15:12:00,
2013-03-14 09:22:00,37.0,-99.9,-100.00,North,-999,-999.0,-999.0,-999,0.00,,,0.04,,2013-03-14 15:22:00,
2013-03-14 10:30:00,41.0,-99.9,-100.00,North,-999,-999.0,-999.0,-999,-99.99,,,-99.99,,2013-03-14 16:30:00,
2013-03-14 10:52:00,41.0,-99.9,-100.00,North,-999,-999.0,-999.0,-999,-99.99,,,-99.99,,2013-03-14 16:52:00,
2013-03-14 11:03:00,41.0,-99.9,-100.00,North,-999,-999.0,-999.0,-999,-99.99,,,-99.99,,2013-03-14 17:03:00,
2013-03-14 11:13:00,41.0,-99.9,-100.00,North,-999,-999.0,-999.0,-999,-99.99,,,-99.99,,2013-03-14 17:13:00,
2013-03-14 11:24:00,41.0,-99.9,-100.00,North,-999,-999.0,-999.0,-999,-99.99,,,-99.99,,2013-03-14 17:24:00,
2013-03-14 11:30:00,45.0,-99.9,-100.00,North,-999,-999.0,-999.0,-999,0.01,,,0.01,,2013-03-14 17:30:00,
2013-03-14 12:03:00,45.0,-99.9,-100.00,North,-999,-999.0,-999.0,-999,0.01,,,0.01,,2013-03-14 18:03:00,
2013-03-14 12:23:00,45.0,-99.9,-100.00,North,-999,-999.0,-999.0,-999,0.01,,,0.01,,2013-03-14 18:23:00,
2013-03-14 12:30:00,48.0,-99.9,-100.00,North,-999,-999.0,-999.0,-999,0.00,,,0.01,,2013-03-14 18:30:00,
2013-03-14 12:53:00,48.0,-99.9,-100.00,North,-999,-999.0,-999.0,-999,0.00,,,0.01,,2013-03-14 18:53:00,
2013-03-14 13:03:00,48.0,-99.9,-100.00,North,-999,-999.0,-999.0,-999,0.00,,,0.01,,2013-03-14 19:03:00,
2013-03-14 13:12:00,48.0,-99.9,-100.00,North,-999,-999.0,-999.0,-999,0.00,,,0.01,,2013-03-14 19:12:00,
2013-03-14 13:23:00,48.0,-99.9,-100.00,North,-999,-999.0,-999.0,-999,0.00,,,0.01,,2013-03-14 19:23:00,
2013-03-14 14:30:00,45.0,-99.9,-100.00,North,-999,-999.0,-999.0,-999,0.00,,,0.01,,2013-03-14 20:30:00,
2013-03-14 14:53:00,45.0,-99.9,-100.00,North,-999,-999.0,-999.0,-999,0.00,,,0.01,,2013-03-14 20:53:00,
2013-03-14 15:03:00,45.0,-99.9,-100.00,North,-999,-999.0,-999.0,-999,0.00,,,0.01,,2013-03-14 21:03:00,
2013-03-14 15:13:00,45.0,-99.9,-100.00,North,-999,-999.0,-999.0,-999,0.00,,,0.01,,2013-03-14 21:13:00,
2013-03-14 15:23:00,45.0,-99.9,-100.00,North,-999,-999.0,-999.0,-999,0.00,,,0.01,,2013-03-14 21:23:00,
2013-03-14 15:30:00,47.0,-99.9,-100.00,North,-999,-999.0,-999.0,-999,0.00,,,0.01,,2013-03-14 21:30:00,
2013-03-14 15:53:00,47.0,-99.9,-100.00,North,-999,-999.0,-999.0,-999,0.00,,,0.01,,2013-03-14 21:53:00,
2013-03-14 16:04:00,47.0,-99.9,-100.00,North,-999,-999.0,-999.0,-999,0.00,,,0.01,,2013-03-14 22:04:00,
2013-03-14 16:13:00,47.0,-99.9,-100.00,North,-999,-999.0,-999.0,-999,0.00,,,0.01,,2013-03-14 22:13:00,
2013-03-14 16:24:00,47.0,-99.9,-100.00,North,-999,-999.0,-999.0,-999,0.00,,,0.01,,2013-03-14 22:24:00,
2013-03-14 16:30:00,47.0,-99.9,-100.00,North,-999,-999.0,-999.0,-999,0.00,,,0.01,,2013-03-14 22:30:00,
2013-03-14 16:53:00,47.0,-99.9,-100.00,North,-999,-999.0,-999.0,-999,0.00,,,0.01,,2013-03-14 22:53:00,
2013-03-14 17:03:00,47.0,-99.9,-100.00,North,-999,-999.0,-999.0,-999,0.00,,,0.01,,2013-03-14 23:03:00,
2013-03-14 17:12:00,47.0,-99.9,-100.00,North,-999,-999.0,-999.0,-999,0.00,,,0.01,,2013-03-14 23:12:00,
2013-03-14 17:23:00,47.0,-99.9,-100.00,North,-999,-999.0,-999.0,-999,0.00,,,0.01,,2013-03-14 23:23:00,
2013-03-14 17:30:00,49.0,-99.9,-100.00,North,-999,-999.0,-999.0,-999,0.00,,,0.01,,2013-03-14 23:30:00,
2013-03-14 17:54:00,49.0,-99.9,-100.00,North,-999,-999.0,-999.0,-999,0.00,,,0.01,,2013-03-14 23:54:00,
2013-03-14 18:02:00,49.0,-99.9,-100.00,North,-999,-999.0,-999.0,-999,0.00,,,0.01,,2013-03-15 00:02:00,
2013-03-14 18:12:00,49.0,-99.9,-100.00,North,-999,-999.0,-999.0,-999,0.00,,,0.01,,2013-03-15 00:12:00,
2013-03-14 18:23:00,49.0,-99.9,-100.00,North,-999,-999.0,-999.0,-999,0.00,,,0.01,,2013-03-15 00:23:00,
2013-03-14 18:30:00,43.0,-99.9,-100.00,North,-999,-999.0,-999.0,-999,-99.99,,,-99.99,,2013-03-15 00:30:00,
2013-03-14 18:53:00,43.0,-99.9,-100.00,North,-999,-999.0,-999.0,-999,-99.99,,,-99.99,,2013-03-15 00:53:00,
2013-03-14 19:03:00,43.0,-99.9,-100.00,North,-999,-999.0,-999.0,-999,-99.99,,,-99.99,,2013-03-15 01:03:00,
2013-03-14 19:30:00,42.0,-99.9,-100.00,North,-999,-999.0,-999.0,-999,0.00,,,0.00,,2013-03-15 01:30:00,
2013-03-14 20:03:00,42.0,-99.9,-100.00,North,-999,-999.0,-999.0,-999,0.00,,,0.00,,2013-03-15 02:03:00,
2013-03-14 20:12:00,42.0,-99.9,-100.00,North,-999,-999.0,-999.0,-999,0.00,,,0.00,,2013-03-15 02:12:00,
2013-03-14 20:22:00,42.0,-99.9,-100.00,North,-999,-999.0,-999.0,-999,0.00,,,0.00,,2013-03-15 02:22:00,
2013-03-14 20:30:00,43.0,-99.9,-100.00,North,-999,-999.0,-999.0,-999,0.00,,,0.00,,2013-03-15 02:30:00,
2013-03-14 20:52:00,43.0,-99.9,-100.00,North,-999,-999.0,-999.0,-999,0.00,,,0.00,,2013-03-15 02:52:00,
2013-03-14 21:02:00,43.0,-99.9,-100.00,North,-999,-999.0,-999.0,-999,0.00,,,0.00,,2013-03-15 03:02:00,
2013-03-14 21:13:00,43.0,-99.9,-100.00,North,-999,-999.0,-999.0,-999,0.00,,,0.00,,2013-03-15 03:13:00,
2013-03-14 21:22:00,43.0,-99.9,-100.00,North,-999,-999.0,-999.0,-999,0.00,,,0.00,,2013-03-15 03:22:00,
2013-03-14 21:30:00,43.0,-99.9,-100.00,North,-999,-999.0,-999.0,-999,0.00,,,-99.99,,2013-03-15 03:30:00,
2013-03-14 21:53:00,43.0,-99.9,-100.00,North,-999,-999.0,-999.0,-999,0.00,,,-99.99,,2013-03-15 03:53:00,
2013-03-14 22:03:00,43.0,-99.9,-100.00,North,-999,-999.0,-999.0,-999,0.00,,,-99.99,,2013-03-15 04:03:00,
2013-03-14 22:13:00,43.0,-99.9,-100.00,North,-999,-999.0,-999.0,-999,0.00,,,-99.99,,2013-03-15 04:13:00,
2013-03-14 22:23:00,43.0,-99.9,-100.00,North,-999,-999.0,-999.0,-999,0.00,,,-99.99,,2013-03-15 04:23:00,
2013-03-14 22:30:00,44.0,-99.9,-100.00,North,-999,-999.0,-999.0,-999,0.00,,,-99.99,,2013-03-15 04:30:00,
2013-03-14 22:53:00,44.0,-99.9,-100.00,North,-999,-999.0,-999.0,-999,0.00,,,-99.99,,2013-03-15 04:53:00,
2013-03-14 23:03:00,44.0,-99.9,-100.00,North,-999,-999.0,-999.0,-999,0.00,,,-99.99,,2013-03-15 05:03:00,
2013-03-14 23:12:00,44.0,-99.9,-100.00,North,-999,-999.0,-999.0,-999,0.00,,,-99.99,,2013-03-15 05:12:00,
2013-03-14 23:23:00,44.0,-99.9,-100.00,North,-999,-999.0,-999.0,-999,0.00,,,-99.99,,2013-03-15 05:23:00,